Regional Weather Roundup
Issued by NWS Huntsville, AL

Home | Current Version | Previous Version | Text Only | Print | Product List | Glossary On
Versions: 1 2 3 4 5 6 7 8 9 10 11 12 13 14 15 16 17 18 19 20 21 22 23 24 25 26 27 28 29 30 31 32 33 34 35 36 37 38 39 40 41 42 43 44 45 46 47 48 49 50
000
ASUS44 KHUN 301110
RWRHUN

WEATHER ROUNDUP FOR THE TENNESSEE VALLEY
NATIONAL WEATHER SERVICE HUNTSVILLE AL
600 AM CDT SAT JUL 30 2016

ALZ001>004-301200-
NORTHWEST ALABAMA

CITY           SKY/WX    TMP DP  RH WIND       PRES   REMARKS
COURTLAND HCN    N/A     70 N/A N/A CALM        N/A
RUSSELLVILLE     N/A     70 N/A N/A MISG        N/A
SHOALS AIRPORT PTCLDY    71  68  90 CALM      30.02R
SHOALS TVA RES   N/A     70 N/A N/A MISG        N/A
$$

ALZ005>007-016-301200-
NORTH CENTRAL ALABAMA

CITY           SKY/WX    TMP DP  RH WIND       PRES   REMARKS
CULLMAN AG STN   N/A     70 N/A N/A CALM        N/A
DECATUR AP     CLOUDY    71  70  96 N3        30.01R
HUNTSVILLE AP  CLOUDY    73  67  81 SE3       30.00R
HUN NWS/UAH      N/A     74  68  82 CALM        N/A
MERIDIANVILLE  MOCLDY    70  64  83 CALM      30.01R
REDSTONE ARSN  CLOUDY    71  70  96 CALM      30.00R
$$

ALZ008>010-301200-
NORTHEAST ALABAMA

CITY           SKY/WX    TMP DP  RH WIND       PRES   REMARKS
ALBERTVILLE    PTCLDY    72  72 100 CALM      30.02R
FORT PAYNE     MOCLDY    70  68  94 CALM      30.01S FOG
SCOTTSBORO AP  CLEAR     73  73 100 CALM      30.02R
SCOTTSBORO HCN   N/A     72 N/A N/A MISG        N/A
VALLEY HEAD      N/A     70 N/A N/A MISG        N/A
$$

TNZ076-096-097-301200-
SOUTHEASTERN MIDDLE TENNESSEE

CITY           SKY/WX    TMP DP  RH WIND       PRES   REMARKS
TULLAHOMA      MOCLDY    70  68  94 CALM      30.04R
WINCHESTER     MOCLDY    72  70  94 CALM      30.03R
$$

...SURROUNDING SITES...

CITY           SKY/WX    TMP DP  RH WIND       PRES   REMARKS
ATLANTA        PTCLDY    73  72  96 W7        30.02R
ANNISTON       MOCLDY    72  70  93 CALM      30.02R
BIRMINGHAM     PTCLDY    78  71  79 SW7       30.04R
CHATTANOOGA    MOCLDY    75  71  87 CALM      30.00R
DALTON         CLEAR     70  70 100 CALM      30.01S
GADSDEN        MOCLDY    72  71  97 CALM      30.01R
GOLDEN TRNGL   CLEAR     77  70  78 CALM      29.99R FOG
HALEYVILLE     FAIR      71  70  96 CALM      30.04R
JACKSON TN     CLOUDY    72  71  97 SW3       30.00R
MEMPHIS        CLOUDY    74  71  91 CALM      29.98R
NASHVILLE      CLOUDY    74  71  91 CALM      30.00R
OXFORD MS      FAIR      70  68  94 CALM      30.01R
ROME           CLEAR     70  69  97 CALM      30.00R
TUPELO         PTCLDY    73  70  90 CALM      29.99R
TUSCALOOSA     PTCLDY    74  73  97 CALM      30.00R
$$

...GULF COAST WEATHER...

CITY           SKY/WX    TMP DP  RH WIND       PRES   REMARKS
GULFPORT       CLEAR     77  75  93 W3        30.01R
PASCAGOULA     CLEAR     74  74 100 CALM      30.01R
MOBILE         PTCLDY    75  74  96 CALM      30.03R
GULF SHORES    SUNNY     75  75 100 CALM      30.01R
PENSACOLA      CLEAR     78  75  90 W3        30.01R
DESTIN         CLEAR     83  79  88 CALM      30.01R HX  94
PANAMA CITY    MOCLDY    82  75  78 NW7       30.02R
APPALACHICOLA  CLEAR     78  76  93 CALM      30.02R
$$




USA.gov is the U.S. government's official web portal to all federal, state and local government web resources and services.